Location: Amsterdam
(30.7274°N, 84.4357°W)
Time: 19:48:20
(UTC+00:00)

Vanguard 1 Rocket - Pass Details

Date: 18 February 2026
Orbit: 653 x 4214 km, 34.3° (Epoch: 11 March)

Event Time Altitude Azimuth Distance (km) Brightness Sun altitude
Rises 00:49:54 0° 290° (WNW) 6,633 13.0 -18.4°
Reaches altitude 10° 00:53:42 10° 287° (WNW) 5,988 12.6 -19.2°
Maximum altitude 01:14:23 62° 213° (SSW) 4,414 10.8 -23.6°
Drops below altitude 10° 01:39:31 10° 139° (SE) 7,010 11.5 -29.0°
Enters shadow 01:40:37 - 138° (SE) 7,172 11.6 -29.3°
